DELTA 1 R/B

Last updated on Sun Jun 21 2026 00:02:15 GMT+0000 (Coordinated Universal Time)

1 20323U 89089B 26171.46101461 .00000208 00000+0 59867-4 0 9992 2 20323 97.0636 2.4954 0069528 156.7063 203.7312 14.50732963910632
UTC large
Height (km)
Speed (km/s)
/
Latitude / Longitude
Inclination (degrees)
Orbital Period (minutes)
Azimuth
Elevation
Range (km)
Doppler Factor

Next 0 passes for location: London (51.5072 / 0.1276)

No passes found over London.
DELTA 1 R/B